Wind_Speed
17 17 17 17 18 18 19 20 21 21 22 23 25 25 26 27 28 25 26 28 25 23 21 17 15 14 12 8 10 12 13 13 11 9 8 7 6 5 4 2 5 3 1 0 3 3 5
18 19 19 19 20 20 20 20 21 22 24 25 25 26 26 26 28 26 29 29 28 25 20 17 15 12 10 5 9 9 10 11 8 8 9 8 6 4 8 2 3 2 1 5 6 6 5
18 18 19 19 20 21 22 22 22 23 25 25 25 26 26 26 26 26 28 30 29 24 19 13 11 11 11 17 13 12 14 9 6 5 9 8 11 7 2 2 1 1 4 4 8 8 4
18 19 19 20 21 22 23 24 24 25 25 25 26 27 27 28 27 27 25 27 28 25 13 10 9 9 8 10 11 13 10 8 5 4 5 6 7 5 3 2 1 1 1 3 1 10 5
18 20 20 21 21 22 23 24 24 25 26 27 27 27 26 27 29 27 26 28 25 20 7 14 5 6 7 7 7 6 5 6 6 4 2 4 6 3 3 4 3 3 4 6 4 10 5
19 20 21 22 23 24 25 26 26 26 26 27 28 29 29 29 29 29 28 30 20 14 5 12 4 5 8 5 6 9 12 7 4 3 2 4 3 2 1 3 6 6 5 6 6 5 4
24 23 23 24 25 26 27 28 28 28 29 29 29 29 29 27 29 29 28 25 17 3 16 17 23 14 5 12 15 8 5 4 5 4 4 4 3 8 11 9 2 1 4 7 2 2 6
22 23 24 25 26 27 28 28 30 31 31 31 31 31 31 29 28 19 26 14 16 12 12 27 21 18 20 17 5 6 3 3 5 4 5 4 8 4 2 2 3 3 4 6 1 1 2
23 24 26 27 29 30 31 32 32 32 32 33 32 31 32 31 25 23 22 17 22 16 6 11 3 4 5 5 3 6 4 5 5 4 7 7 1 5 2 2 3 3 5 3 4 4 5
24 26 28 29 30 31 32 32 32 32 32 33 31 31 30 31 12 24 11 21 23 17 3 4 1 1 3 4 3 6 5 3 2 4 2 6 1 3 2 5 6 3 2 1 1 4 4
27 29 31 32 34 34 33 33 33 33 32 32 31 28 28 22 24 22 14 21 21 7 6 0 2 2 3 4 2 2 3 1 3 3 4 5 6 4 5 4 3 5 2 3 3 1 4
29 31 33 34 34 34 34 33 33 33 33 32 31 28 28 24 21 14 16 16 12 4 8 2 3 1 1 4 3 3 1 2 1 2 3 3 0 3 4 3 2 5 1 1 2 2 3
30 32 33 34 34 34 34 34 33 33 32 31 30 28 24 23 20 14 11 9 3 4 5 0 1 3 4 4 4 5 3 2 4 2 4 1 3 1 3 4 2 2 3 2 3 2 6
32 33 33 32 32 32 31 32 31 32 32 32 31 28 24 16 13 11 8 2 5 5 7 3 1 4 6 2 2 3 2 4 7 4 1 5 7 6 4 4 5 6 5 4 6 4 4
31 31 33 34 35 35 33 33 31 30 31 31 32 32 21 13 8 8 2 2 6 5 2 7 7 3 3 2 3 4 6 5 4 8 7 3 4 2 2 2 1 4 5 0 1 2 2
33 36 36 32 32 32 30 30 30 33 32 29 31 31 11 7 6 4 1 5 5 6 5 4 2 5 5 6 4 3 2 3 1 7 6 1 6 1 1 2 1 3 2 2 1 3 6
34 34 34 34 30 31 34 35 32 35 33 31 23 12 4 7 4 4 4 7 6 4 8 5 2 5 4 5 6 7 3 6 10 5 9 7 1 1 2 5 4 2 2 3 2 1 3
32 34 35 37 38 34 29 32 32 33 35 34 12 4 6 10 3 4 3 4 8 7 6 4 1 2 2 2 5 5 5 2 3 8 3 0 3 4 8 2 2 4 4 4 2 3 4
32 34 35 37 38 34 24 28 31 32 29 29 16 12 7 9 2 2 6 6 7 4 4 2 2 2 2 3 5 3 4 9 6 3 4 3 2 4 2 1 3 2 5 7 7 1 6
32 34 37 38 36 30 24 26 28 28 28 24 10 4 5 5 7 5 5 5 6 12 5 2 2 3 2 4 7 5 4 1 5 6 7 6 3 5 8 10 5 5 7 7 10 4 7
34 36 37 37 35 26 23 25 25 25 23 19 5 4 9 4 8 9 8 5 13 9 3 3 3 5 6 6 3 6 7 3 3 8 7 5 5 6 14 14 10 14 15 16 15 20 11
35 38 38 37 30 24 23 25 27 25 21 15 6 6 9 17 17 6 5 3 12 10 5 6 4 6 11 11 7 14 16 7 4 3 4 3 4 3 5 13 13 13 15 17 16 20 20
37 39 37 29 28 27 24 24 25 21 17 9 8 19 12 6 4 6 6 4 6 18 12 6 10 12 7 9 8 20 19 14 10 6 10 5 4 3 7 3 3 6 9 9 4 5 7
38 39 35 28 29 28 24 23 23 22 17 16 16 14 7 7 6 6 7 18 16 14 10 15 20 5 7 14 22 20 20 18 16 12 12 7 4 2 3 3 3 7 2 3 5 6 6
37 36 30 28 29 28 26 25 21 18 17 19 17 11 5 5 15 14 9 11 16 18 11 17 28 17 11 8 3 6 3 3 6 2 6 10 3 2 3 3 7 8 1 1 2 3 2
33 31 33 27 29 28 26 24 22 18 16 19 19 8 12 7 6 8 16 21 13 13 8 5 7 18 4 0 0 3 3 6 4 2 6 2 3 2 1 3 5 5 2 2 2 4 4
34 33 32 28 28 27 24 25 24 18 14 15 16 10 15 11 21 9 5 10 10 12 6 11 4 2 2 1 3 3 4 3 2 3 3 1 1 5 4 4 7 3 4 4 1 2 5
35 34 31 32 27 27 23 22 23 21 15 16 19 16 19 14 27 31 17 14 17 18 3 10 11 2 1 2 2 4 2 4 2 2 5 6 5 3 3 4 8 8 6 4 1 2 3
35 33 31 28 28 23 22 22 22 22 17 16 20 19 18 19 29 38 38 35 32 29 24 9 8 4 7 3 2 2 3 1 3 11 4 4 7 4 8 6 2 16 3 6 6 6 6
Wind_Direction
41 35 32 29 25 20 16 14 12 10 7 4 2 2 1 1 1 2 355 346 340 332 320 307 307 306 311 280 256 269 287 298 294 260 226 203 231 245 251 281 154 193 257 299 170 208 231
37 33 27 22 19 14 11 7 3 0 358 357 357 356 356 357 359 357 356 351 342 334 323 310 300 296 299 258 274 280 298 301 283 247 223 210 208 249 282 202 200 178 211 226 228 214 213
26 22 16 12 8 4 1 357 355 353 352 353 353 352 351 350 351 350 347 349 345 339 331 322 297 275 272 264 266 276 294 293 280 241 225 229 226 234 297 282 279 7 317 261 215 201 232
14 11 7 3 359 356 353 351 350 349 348 346 345 344 344 343 343 343 343 346 342 336 335 343 298 265 254 260 262 274 278 280 276 263 233 217 198 207 220 150 357 266 229 287 181 150 182
3 0 357 355 353 351 348 347 344 343 342 341 339 337 338 338 337 339 339 340 337 330 316 339 292 249 265 247 260 277 286 270 266 242 242 170 170 172 142 120 348 265 245 217 293 192 147
355 353 351 350 347 345 344 344 343 342 341 340 338 337 336 338 336 337 335 337 337 321 300 338 242 262 235 239 265 283 288 265 218 215 217 175 157 97 41 123 226 213 228 250 229 203 199
354 354 352 350 347 345 343 342 341 340 338 337 337 335 333 337 337 339 340 353 353 326 316 279 274 260 272 276 291 278 272 228 178 181 195 191 120 215 208 208 330 263 242 254 276 236 194
347 346 345 344 343 341 340 339 338 337 335 336 338 336 337 336 335 346 348 11 350 304 303 304 272 251 262 275 260 253 248 182 181 195 141 42 238 177 122 161 206 238 263 261 230 35 184
347 347 346 345 343 341 340 338 336 335 334 333 334 333 332 332 340 347 345 351 345 330 276 294 253 223 246 221 240 228 219 193 204 215 194 180 205 125 161 215 234 248 218 266 258 308 234
349 346 343 340 337 335 333 332 331 330 329 329 331 332 331 330 332 337 341 342 339 336 336 265 263 242 210 208 254 218 209 202 228 224 212 228 63 163 166 232 162 240 164 191 304 28 253
344 341 340 338 336 334 332 330 329 328 327 327 327 330 327 332 323 327 320 333 329 342 337 90 180 186 238 239 313 219 208 237 229 200 130 246 162 172 198 217 196 226 173 179 150 134 6
341 340 339 338 337 336 335 334 332 330 329 328 327 327 325 327 321 315 319 322 318 43 252 187 147 196 270 200 231 175 188 205 253 285 230 259 199 195 191 102 70 135 99 350 33 139 236
341 340 340 339 337 337 337 336 335 333 332 329 327 327 325 312 312 321 315 314 24 168 316 317 336 168 238 231 226 183 175 185 206 246 240 145 218 154 151 110 32 143 122 294 314 330 237
343 342 340 340 339 338 338 337 337 336 335 333 330 331 329 313 312 327 330 81 199 238 263 41 28 228 217 200 238 171 291 283 223 198 277 235 277 171 185 218 178 181 193 190 245 225 269
340 341 343 344 344 343 344 344 343 339 337 337 334 338 339 344 335 318 248 222 225 227 333 341 330 281 251 130 243 217 219 227 213 169 195 259 245 80 75 7 116 186 202 209 43 195 14
343 349 349 346 346 346 348 347 347 344 339 344 336 337 346 357 322 289 153 242 252 304 3 357 272 264 282 351 304 300 326 345 72 39 336 329 290 189 146 46 129 174 320 95 21 250 253
347 345 343 340 341 344 347 349 349 345 345 349 344 328 308 360 345 188 221 230 279 40 15 355 317 302 300 319 284 270 256 30 5 14 18 15 177 20 71 205 182 106 264 287 4 239 247
342 340 337 334 331 332 339 340 346 348 350 349 352 314 303 296 349 234 207 239 322 340 20 1 311 344 333 340 270 266 258 264 202 153 140 226 213 263 228 60 67 147 188 181 187 247 248
337 335 332 329 327 331 337 335 337 343 350 344 322 283 328 266 235 254 298 305 312 317 63 333 322 23 96 270 300 280 253 221 218 119 147 177 228 302 251 20 21 208 201 200 179 94 220
331 330 328 327 327 336 339 333 333 339 343 345 321 318 315 227 270 326 344 315 332 2 319 240 253 225 235 237 222 276 262 248 173 159 165 142 237 223 263 266 249 253 218 220 205 223 238
326 327 326 326 327 336 335 332 330 332 336 350 324 292 328 304 332 328 330 311 306 308 237 247 222 236 249 263 257 229 251 253 239 212 168 178 233 214 244 266 291 268 267 259 222 228 232
322 323 323 323 330 335 329 323 324 328 324 334 294 324 320 298 299 310 316 251 284 292 317 295 227 307 296 271 229 279 286 243 254 68 155 197 258 236 246 250 248 263 264 259 250 249 237
321 319 322 329 332 332 324 319 317 320 317 315 295 297 302 285 284 291 269 295 313 325 307 315 313 307 289 287 294 288 270 254 243 257 190 200 220 207 267 4 332 296 243 246 228 219 215
315 315 319 326 326 323 324 321 312 307 302 297 294 307 272 282 273 251 290 296 291 286 285 293 305 254 288 297 300 287 268 267 263 249 194 189 190 197 275 354 222 240 175 191 219 248 265
310 313 318 318 319 317 319 321 320 305 298 295 277 287 269 296 319 301 283 293 308 295 285 283 287 278 298 304 319 327 306 267 250 202 242 236 162 211 235 209 301 302 57 72 34 284 10
310 309 311 310 315 310 317 313 318 305 304 294 273 269 274 286 237 277 299 292 286 289 296 264 282 306 279 155 211 232 251 248 289 172 20 81 91 150 209 225 245 238 191 131 120 284 352
306 308 307 304 309 302 310 304 313 304 297 302 281 277 278 258 283 267 246 282 290 294 282 283 297 320 266 241 223 217 245 253 288 330 201 37 323 219 227 251 279 216 153 124 147 294 348
300 303 303 306 298 300 303 305 305 308 296 299 293 284 270 267 278 284 280 292 292 293 269 314 311 265 151 231 273 249 220 245 9 213 186 179 195 206 208 210 278 147 121 176 167 190 284
297 298 301 299 292 296 299 300 306 297 304 302 291 293 288 279 275 288 289 284 279 287 264 242 240 263 240 221 248 260 288 265 170 281 157 253 198 199 203 214 138 189 128 225 235 270 251
Height
1575 1574 1572 1569 1567 1565 1562 1559 1556 1552 1549 1545 1541 1537 1533 1529 1525 1521 1517 1513 1508 1505 1502 1499 1497 1495 1495 1492 1488 1486 1486 1486 1485 1485 1484 1485 1487 1488 1487 1483 1482 1483 1482 1482 1481 1481 1482
1578 1576 1574 1571 1568 1566 1563 1559 1556 1553 1549 1546 1542 1538 1533 1529 1525 1520 1516 1511 1506 1502 1498 1496 1495 1493 1492 1493 1485 1485 1484 1484 1483 1483 1483 1483 1484 1485 1485 1482 1482 1480 1480 1480 1479 1479 1479
1580 1577 1575 1572 1569 1566 1563 1559 1556 1552 1549 1545 1540 1536 1532 1527 1523 1519 1514 1509 1504 1499 1495 1493 1491 1489 1489 1486 1482 1482 1482 1481 1481 1480 1480 1481 1482 1483 1483 1482 1482 1480 1482 1480 1477 1477 1478
1581 1578 1575 1573 1570 1566 1563 1559 1555 1551 1547 1543 1540 1535 1531 1526 1521 1516 1512 1507 1503 1497 1493 1491 1489 1487 1483 1479 1479 1479 1479 1479 1478 1478 1478 1478 1479 1481 1481 1482 1482 1482 1482 1483 1472 1474 1477
1581 1578 1576 1572 1568 1565 1561 1557 1553 1549 1545 1541 1536 1532 1527 1523 1519 1514 1509 1504 1499 1495 1491 1489 1487 1486 1481 1477 1477 1477 1477 1477 1477 1477 1478 1478 1478 1479 1481 1484 1489 1485 1486 1482 1473 1472 1475
1581 1578 1575 1571 1567 1563 1559 1555 1551 1547 1543 1540 1535 1531 1526 1522 1516 1511 1507 1502 1496 1491 1490 1487 1485 1487 1479 1476 1476 1474 1473 1474 1475 1476 1478 1478 1478 1480 1483 1486 1490 1482 1483 1472 1468 1470 1473
1581 1577 1574 1570 1567 1563 1559 1554 1550 1545 1541 1537 1533 1528 1524 1520 1514 1509 1503 1498 1496 1492 1489 1486 1479 1477 1476 1476 1474 1473 1473 1471 1472 1473 1475 1474 1480 1480 1471 1470 1471 1471 1471 1471 1465 1466 1469
1580 1576 1572 1569 1565 1561 1557 1553 1548 1544 1539 1535 1531 1526 1522 1518 1513 1508 1503 1502 1502 1501 1486 1472 1470 1471 1472 1472 1471 1470 1472 1473 1472 1472 1473 1480 1480 1467 1468 1469 1469 1470 1469 1470 1467 1468 1469
1579 1575 1572 1568 1564 1560 1555 1550 1546 1542 1537 1533 1528 1523 1518 1515 1511 1508 1503 1503 1499 1496 1490 1470 1467 1468 1470 1471 1470 1469 1471 1468 1469 1468 1469 1474 1465 1465 1467 1469 1471 1471 1470 1467 1469 1469 1466
1578 1575 1571 1566 1562 1558 1553 1548 1543 1538 1534 1530 1525 1520 1517 1512 1511 1505 1503 1501 1497 1493 1494 1471 1469 1469 1470 1469 1469 1466 1466 1469 1469 1467 1467 1468 1466 1466 1468 1469 1469 1470 1471 1471 1471 1474 1474
1577 1573 1568 1564 1559 1555 1550 1545 1540 1535 1530 1526 1523 1518 1513 1512 1507 1504 1504 1500 1496 1494 1505 1469 1469 1469 1469 1472 1469 1467 1467 1468 1465 1464 1467 1460 1467 1468 1469 1466 1466 1466 1471 1470 1470 1474 1478
1575 1571 1566 1561 1556 1552 1547 1541 1536 1531 1526 1523 1519 1515 1511 1508 1505 1502 1501 1499 1496 1502 1497 1466 1466 1466 1468 1467 1466 1465 1466 1466 1467 1466 1463 1463 1464 1463 1462 1467 1467 1471 1473 1475 1477 1479 1480
1573 1569 1564 1558 1553 1549 1544 1539 1534 1528 1523 1519 1515 1511 1508 1504 1501 1499 1497 1497 1504 1505 1462 1466 1465 1467 1467 1464 1463 1464 1465 1467 1468 1464 1463 1463 1463 1463 1463 1468 1470 1471 1472 1473 1480 1501 1454
1571 1566 1562 1556 1552 1547 1542 1536 1530 1525 1520 1515 1511 1507 1502 1498 1497 1498 1497 1498 1499 1477 1468 1462 1462 1462 1464 1459 1459 1461 1463 1465 1458 1457 1462 1457 1447 1465 1462 1461 1460 1470 1466 1457 1457 1461 1454
1569 1564 1559 1553 1547 1543 1538 1532 1527 1522 1516 1512 1506 1501 1497 1496 1496 1497 1498 1502 1490 1476 1466 1467 1464 1464 1459 1460 1461 1460 1462 1456 1447 1452 1457 1450 1445 1459 1459 1459 1461 1464 1466 1460 1465 1465 1479
1566 1559 1554 1550 1545 1541 1536 1532 1526 1521 1515 1509 1502 1496 1493 1494 1494 1496 1497 1492 1482 1471 1471 1470 1471 1465 1464 1463 1462 1463 1457 1451 1452 1453 1454 1448 1457 1458 1460 1459 1460 1461 1462 1462 1466 1460 1454
1562 1557 1552 1547 1544 1539 1536 1533 1527 1520 1514 1508 1504 1498 1493 1492 1493 1494 1494 1490 1477 1475 1474 1475 1473 1471 1468 1471 1466 1460 1457 1460 1463 1461 1460 1459 1460 1465 1462 1463 1456 1468 1462 1465 1460 1460 1451
1560 1555 1551 1546 1541 1537 1533 1530 1526 1521 1513 1506 1504 1503 1494 1492 1495 1490 1490 1482 1476 1474 1474 1475 1473 1472 1472 1473 1469 1465 1459 1462 1462 1459 1468 1472 1470 1463 1457 1460 1458 1458 1460 1460 1462 1462 1460
1557 1553 1548 1543 1539 1535 1531 1528 1524 1521 1516 1511 1506 1499 1491 1492 1495 1492 1485 1481 1477 1476 1475 1478 1476 1475 1477 1477 1473 1466 1463 1457 1458 1458 1458 1465 1463 1456 1451 1461 1461 1460 1452 1448 1451 1463 1454
1553 1549 1546 1540 1535 1533 1530 1527 1523 1521 1518 1514 1509 1501 1493 1490 1488 1488 1487 1484 1483 1481 1480 1479 1476 1476 1475 1473 1471 1465 1464 1455 1454 1455 1458 1462 1461 1453 1448 1443 1438 1450 1451 1447 1448 1455 1438
1550 1545 1541 1536 1532 1529 1528 1525 1523 1520 1517 1515 1512 1505 1502 1500 1493 1490 1490 1488 1485 1485 1480 1477 1475 1473 1472 1467 1467 1462 1458 1454 1452 1452 1457 1461 1459 1454 1444 1441 1442 1442 1441 1434 1437 1435 1434
1546 1541 1537 1532 1528 1526 1523 1522 1520 1517 1515 1514 1514 1511 1503 1501 1496 1492 1488 1485 1482 1479 1479 1475 1476 1470 1468 1464 1460 1454 1456 1450 1448 1456 1458 1459 1455 1450 1447 1440 1441 1441 1432 1424 1426 1423 1429
1540 1536 1532 1528 1525 1522 1519 1517 1516 1514 1511 1509 1510 1509 1506 1498 1494 1494 1489 1482 1480 1482 1475 1473 1471 1468 1465 1460 1458 1456 1452 1449 1446 1446 1451 1454 1453 1449 1434 1434 1437 1440 1422 1416 1420 1414 1415
1534 1531 1527 1524 1521 1518 1516 1512 1510 1510 1510 1505 1504 1504 1502 1493 1493 1487 1485 1484 1480 1478 1476 1471 1468 1466 1462 1457 1453 1447 1443 1441 1440 1437 1439 1442 1446 1443 1441 1439 1450 1411 1409 1411 1412 1411 1410
1526 1524 1522 1520 1517 1513 1510 1507 1505 1504 1504 1503 1500 1501 1497 1491 1491 1485 1483 1481 1478 1473 1471 1468 1462 1460 1458 1455 1455 1453 1445 1438 1431 1432 1432 1432 1437 1438 1437 1439 1426 1413 1413 1413 1412 1408 1413
1520 1518 1516 1514 1512 1509 1505 1502 1500 1498 1497 1497 1495 1495 1496 1490 1485 1482 1481 1480 1476 1468 1463 1461 1459 1457 1455 1455 1456 1461 1456 1437 1437 1435 1436 1434 1436 1438 1441 1443 1439 1416 1412 1414 1416 1419 1414
1515 1512 1510 1508 1505 1503 1501 1498 1495 1493 1492 1491 1490 1491 1490 1485 1478 1477 1477 1475 1472 1469 1466 1459 1455 1455 1455 1457 1450 1447 1447 1434 1432 1429 1438 1444 1444 1441 1441 1432 1426 1410 1412 1415 1420 1414 1414
1509 1505 1503 1501 1498 1496 1495 1492 1490 1489 1488 1486 1484 1486 1484 1477 1470 1470 1470 1469 1467 1466 1459 1458 1457 1452 1454 1452 1445 1445 1445 1433 1438 1427 1435 1437 1440 1445 1438 1436 1434 1410 1415 1417 1413 1413 1413
1501 1498 1496 1493 1491 1489 1488 1486 1484 1483 1482 1481 1479 1479 1479 1474 1465 1463 1459 1458 1458 1455 1457 1454 1451 1450 1446 1445 1443 1438 1432 1439 1434 1423 1419 1427 1417 1419 1424 1413 1406 1408 1408 1409 1410 1410 1410